Theta_e
291 291 290 289 289 288 287 287 287 288 287 286 286 284 285 284 283 283 283 284 284 283 284 284 283 284 284 285 285 285 287 286 286 285 287 288 288 289 289 290 291 292 293
290 289 288 288 288 287 286 287 288 287 287 286 285 284 284 284 282 282 282 284 284 283 282 284 282 283 283 284 284 283 284 286 284 282 284 285 285 287 289 287 289 291 291
288 287 287 287 286 286 286 287 287 287 287 286 285 284 284 283 282 282 282 283 284 283 283 283 282 282 281 282 283 282 284 286 286 284 283 285 286 287 287 288 287 287 290
287 287 286 286 286 286 286 286 287 287 286 285 286 285 285 282 281 281 282 282 283 284 283 283 283 281 281 281 283 282 282 284 285 283 283 282 283 285 287 286 286 286 286
286 286 285 286 286 286 286 286 287 287 286 286 285 285 285 282 281 281 281 281 284 283 282 282 283 282 283 282 282 282 281 281 282 281 280 280 280 281 282 286 286 286 286
286 285 285 285 285 285 285 285 286 286 286 286 286 285 284 282 282 282 282 282 283 282 281 280 281 281 280 282 284 284 283 280 280 280 279 278 279 280 282 284 285 284 282
286 285 285 285 284 284 285 285 285 285 286 285 285 285 283 281 282 282 282 282 282 283 280 279 278 279 279 279 282 284 284 285 282 281 279 279 279 280 281 283 284 285 283
285 284 284 284 283 284 284 284 284 285 285 285 285 284 283 282 282 281 281 280 280 282 282 279 277 278 279 279 279 279 280 281 283 283 281 280 280 281 282 283 284 287 285
283 283 284 284 282 283 282 283 284 284 284 284 284 283 282 281 281 281 280 278 277 279 281 280 278 279 281 281 278 278 278 279 284 285 285 283 283 285 286 283 281 281 281
283 283 283 283 282 282 283 283 283 283 283 282 282 283 283 280 280 280 280 278 276 278 279 279 280 280 281 280 278 277 276 278 280 282 282 284 285 285 285 284 282 280 281
284 283 283 283 282 282 282 282 280 280 281 280 280 281 280 280 278 280 280 278 277 277 277 279 279 281 281 281 280 278 278 279 280 280 280 281 282 283 284 284 284 283 280
283 282 282 282 283 281 280 280 278 278 277 277 277 277 278 278 279 279 280 280 279 277 278 279 279 280 281 280 279 280 279 279 279 278 278 278 279 280 282 283 285 285 284
282 281 283 282 282 281 279 278 277 276 275 275 275 275 275 277 276 279 279 280 279 277 280 279 279 279 279 279 279 279 278 277 277 276 276 277 279 280 281 282 283 284 286
280 281 282 281 281 281 280 279 278 276 275 275 274 273 274 275 275 277 278 278 279 277 278 278 277 278 276 277 277 278 277 277 276 276 276 278 279 279 279 281 281 282 282
282 281 280 281 280 280 279 279 278 278 276 275 274 274 273 273 275 278 279 278 278 277 277 276 274 274 274 274 275 276 276 276 276 276 277 277 278 278 279 281 281 281 280
280 280 279 280 279 279 279 279 280 281 277 278 278 276 276 278 279 279 280 280 279 278 275 273 272 273 272 272 272 273 275 275 276 277 277 277 277 277 278 280 280 279 279
278 279 279 279 278 278 278 278 277 280 282 279 278 278 278 279 279 279 279 279 278 276 273 272 272 272 271 272 272 272 273 275 277 276 277 277 277 277 277 278 279 279 279
280 280 279 279 278 279 278 278 278 277 276 276 279 277 277 279 279 279 279 277 274 274 273 272 272 272 271 271 272 273 273 274 274 274 275 275 276 276 277 278 279 278 277
278 278 279 279 278 278 278 278 277 277 276 276 276 275 275 279 278 278 278 274 273 272 272 272 273 272 272 272 273 273 273 273 273 273 273 274 275 276 277 278 279 279 280
278 277 278 278 278 278 277 277 276 276 276 275 275 273 274 275 274 274 274 273 273 273 273 273 273 273 273 272 273 273 272 272 271 271 272 273 274 275 278 279 280 280 280
279 279 276 278 277 277 277 276 276 275 275 275 275 275 274 274 273 273 273 273 272 273 273 274 273 273 273 273 272 272 271 270 270 271 271 273 274 275 280 281 281 281 281
279 278 278 278 277 277 277 276 275 275 275 275 275 275 272 274 273 273 273 272 272 274 275 275 274 274 273 273 272 271 270 269 270 270 272 273 275 279 279 280 280 280 280
279 279 278 277 278 275 277 277 275 275 275 275 275 274 274 273 273 272 272 272 272 273 276 275 274 274 273 273 272 271 269 270 271 272 272 274 277 278 279 279 279 280 279
279 279 278 277 277 277 276 276 276 273 274 274 274 274 273 272 272 271 271 271 271 273 275 275 275 274 273 272 271 271 271 272 273 274 277 277 277 278 278 278 279 279 279
280 279 279 278 277 277 277 276 275 275 274 274 273 273 273 272 271 271 270 271 270 272 274 275 275 274 272 271 271 270 271 273 273 277 278 278 276 278 277 277 278 278 278
279 279 278 278 277 277 276 275 274 273 273 273 273 272 272 271 270 270 269 269 269 271 273 273 273 273 272 272 271 270 270 271 272 278 278 277 276 277 276 277 276 277 277
Wind_Speed
11 10 11 10 12 11 10 10 10 10 10 11 12 13 14 13 16 15 13 13 14 10 13 10 13 14 9 10 10 9 5 5 1 4 3 6 7 8 9 8 11 9 12
11 10 10 11 11 11 11 11 10 11 10 11 12 13 13 12 16 15 16 13 12 11 14 11 12 12 15 12 11 13 10 5 5 5 4 6 8 9 9 11 6 7 8
10 10 11 11 11 11 11 11 11 11 11 11 10 12 12 13 17 16 15 15 13 7 12 13 12 15 14 14 11 12 11 6 5 4 5 4 2 7 6 4 8 8 7
10 10 10 10 10 10 11 10 10 10 11 10 11 11 11 13 17 18 18 16 15 5 9 13 11 15 15 16 10 11 12 10 8 8 5 6 6 8 4 5 6 7 8
10 10 10 10 10 10 11 10 10 9 9 8 8 9 10 12 14 19 18 18 8 8 8 13 11 22 29 25 11 7 11 10 8 8 7 6 8 7 10 6 4 1 4
9 10 10 10 10 11 10 10 10 9 9 8 7 9 10 10 29 31 26 15 11 8 10 12 13 19 22 27 25 9 11 10 11 9 8 9 10 9 8 7 5 5 3
9 10 10 10 10 11 11 11 11 9 9 10 7 10 11 13 30 30 31 15 15 12 12 12 13 13 17 17 18 19 17 14 8 6 8 6 8 8 9 8 8 4 5
10 11 11 10 10 10 10 11 11 10 8 10 8 10 11 12 29 30 29 16 15 15 13 13 14 14 17 19 14 13 12 13 8 6 5 4 4 6 8 5 9 2 5
11 10 10 10 10 10 10 10 10 10 9 11 11 12 13 13 30 30 23 13 15 15 13 14 15 14 23 25 14 14 13 13 14 10 7 6 5 8 12 7 9 8 4
9 9 10 10 9 8 10 8 10 11 10 11 13 13 17 14 27 30 24 11 14 11 12 12 20 19 22 23 13 13 13 13 13 13 11 13 13 11 11 8 6 7 7
9 9 8 9 8 9 10 9 11 12 12 12 13 13 14 16 18 30 28 12 12 10 10 9 10 23 21 21 19 12 14 12 12 10 9 9 9 10 8 8 7 4 4
7 6 7 7 5 7 10 10 12 12 12 12 13 11 11 13 23 25 27 24 23 11 11 9 11 22 21 21 15 21 19 12 8 8 8 9 8 9 9 9 10 7 3
6 7 7 5 6 6 8 10 8 10 9 10 10 10 11 11 12 26 25 24 23 12 10 16 21 21 20 14 21 21 14 9 8 9 9 8 9 9 9 9 9 10 7
5 5 6 6 8 7 5 6 7 7 7 8 10 10 10 10 12 13 12 11 18 14 12 10 11 13 11 11 10 11 9 9 8 8 7 7 7 7 8 7 6 7 5
5 6 8 6 7 7 5 5 5 4 3 7 7 8 10 11 13 21 19 11 12 13 10 8 10 10 11 11 10 10 9 9 8 8 7 7 7 7 7 7 6 6 6
6 5 5 6 6 6 6 4 1 5 1 9 15 11 8 17 24 26 26 23 25 22 9 11 11 11 12 11 11 10 10 11 9 9 8 7 7 7 7 7 6 6 6
6 6 5 6 6 6 6 6 7 7 6 9 20 21 23 22 24 26 26 23 24 18 11 11 11 11 10 10 10 10 10 10 10 8 8 8 7 7 7 6 6 6 6
4 2 4 4 4 4 5 5 5 6 7 7 12 20 23 23 24 25 26 17 12 14 11 10 11 10 10 10 10 9 10 10 9 9 9 8 8 8 7 7 6 5 5
6 5 5 4 3 5 5 6 6 7 8 8 9 12 16 21 22 23 24 11 11 11 11 10 10 10 10 10 9 9 10 9 10 9 9 9 9 8 7 7 7 9 8
5 5 4 4 5 6 6 7 7 8 8 9 9 10 12 11 11 12 12 11 11 10 10 10 10 10 10 10 10 10 9 10 10 9 9 9 9 9 8 9 8 9 8
3 3 4 5 5 6 6 7 7 7 8 8 8 9 13 10 11 11 11 11 11 10 11 10 10 10 9 10 10 10 9 9 9 9 9 9 10 10 9 8 9 8 8
3 3 4 4 5 5 6 6 7 7 8 8 8 8 10 9 9 10 10 11 10 10 9 9 9 9 10 10 10 10 10 10 9 9 9 10 9 9 9 9 9 8 9
3 4 5 5 4 6 5 6 6 6 7 8 8 8 9 8 9 10 10 10 10 10 9 10 9 11 10 10 9 9 9 10 10 10 10 10 9 9 9 9 9 9 10
3 3 4 4 3 4 4 4 5 6 6 7 7 8 8 8 9 10 9 9 10 10 10 10 10 14 12 11 10 10 9 10 10 10 12 9 9 10 9 9 9 11 10
3 2 2 3 3 3 3 4 5 5 5 6 6 7 7 8 8 9 9 9 9 10 12 11 11 14 16 17 17 18 18 19 16 14 8 10 11 11 10 8 10 9 9
2 2 2 2 2 2 3 3 4 4 4 5 5 6 6 7 8 8 9 9 10 10 12 10 14 16 17 15 18 20 21 21 19 16 10 10 10 8 9 10 13 9 11
Wind_Direction
11 10 12 7 3 7 4 1 359 348 357 2 11 358 346 359 349 342 337 334 338 356 340 338 354 345 339 341 343 339 327 331 30 39 351 4 15 19 18 16 32 16 34
9 12 15 6 3 5 2 358 356 352 359 15 10 351 344 358 348 342 340 334 327 357 346 340 5 351 351 346 355 350 351 355 17 25 348 7 25 3 24 35 14 35 33
13 12 13 6 5 4 359 356 354 353 9 12 0 349 351 0 352 345 339 333 322 7 353 353 13 357 352 348 356 358 349 356 13 19 16 3 342 15 16 16 26 28 34
15 14 12 5 7 2 357 354 352 3 5 352 351 353 5 5 355 347 341 333 319 24 15 357 18 9 356 351 349 4 360 5 12 15 29 17 7 358 353 11 29 23 22
15 14 11 6 8 3 357 350 347 4 343 339 345 359 21 10 2 351 343 334 342 5 37 12 7 13 1 354 346 359 29 8 12 24 17 19 16 1 5 351 7 4 21
18 13 10 8 7 2 352 348 346 349 345 342 357 13 29 12 8 359 352 332 351 10 33 18 3 22 358 351 350 34 53 24 16 17 22 22 10 358 346 353 8 13 21
16 10 10 6 6 1 354 343 343 345 344 344 12 19 16 27 14 5 353 352 351 11 40 22 13 11 0 352 352 6 4 18 30 29 27 23 13 352 339 348 354 34 59
14 9 6 4 3 360 351 342 341 343 353 351 12 19 15 28 16 7 1 358 353 354 29 39 18 1 4 360 3 4 7 360 4 5 16 16 350 341 348 354 336 88 82
13 7 5 359 359 354 343 340 346 351 3 359 7 14 16 22 15 8 6 3 354 350 17 13 17 359 4 9 6 4 5 357 358 13 338 292 276 342 16 12 17 17 2
11 8 2 354 350 349 346 355 0 359 7 4 1 15 15 21 13 8 11 0 356 352 2 7 7 3 8 14 9 2 4 359 358 5 12 7 9 4 18 27 15 20 360
14 8 358 344 343 12 357 11 13 5 7 9 3 8 8 15 9 6 9 5 358 348 350 358 1 3 10 14 18 12 9 356 359 7 11 5 4 4 9 9 8 24 13
11 356 334 348 353 30 12 13 21 11 8 8 2 1 360 7 4 5 6 8 2 350 343 2 359 8 13 16 16 19 13 7 7 9 11 6 2 5 1 1 356 358 75
330 309 291 9 346 50 29 23 22 12 8 8 358 356 353 356 357 1 359 1 6 358 358 9 6 9 13 14 18 20 14 13 9 10 10 4 359 355 357 358 351 354 346
274 351 2 26 3 25 44 33 27 16 10 3 360 357 351 354 356 358 353 355 3 1 359 4 1 8 10 11 11 17 12 11 8 4 359 357 354 357 358 354 356 353 353
30 48 359 23 21 11 67 27 28 40 18 2 9 0 350 357 1 3 2 5 9 358 358 6 10 12 11 11 10 10 5 7 8 1 359 359 359 355 354 354 359 351 10
26 26 33 14 20 12 14 22 83 11 173 44 35 21 352 4 8 9 10 12 17 10 10 13 13 10 10 5 4 0 0 3 1 356 1 356 360 355 351 356 357 2 5
30 1 35 22 13 7 12 10 3 357 26 83 39 21 6 10 14 14 12 13 17 17 20 13 11 7 6 2 359 355 354 356 355 357 360 356 356 349 349 354 353 352 351
32 325 41 38 4 352 11 10 4 4 3 5 33 15 4 9 16 17 15 9 12 19 16 9 6 4 2 355 349 351 351 355 1 356 356 354 349 344 343 348 339 331 322
26 14 353 31 11 16 18 10 10 9 8 7 10 11 1 4 13 16 19 19 10 11 7 4 3 360 357 350 349 352 350 355 357 354 352 350 345 340 337 337 328 328 328
100 10 330 28 22 18 18 14 11 12 10 10 14 14 354 1 9 12 17 11 9 9 2 359 360 355 352 350 353 353 352 359 357 352 345 341 337 332 333 340 355 359 5
42 52 5 35 41 21 15 22 13 12 14 13 10 19 0 8 6 9 11 8 1 0 357 358 356 350 354 356 356 354 357 354 349 341 337 335 333 331 349 354 356 357 357
35 44 41 37 43 40 11 29 19 13 16 13 8 10 9 12 7 10 10 6 355 349 351 357 353 354 360 357 356 356 354 348 342 336 331 331 328 349 350 356 357 1 1
44 37 49 42 39 32 35 22 31 19 16 15 7 9 11 9 6 11 5 2 350 343 357 356 357 6 3 5 1 358 348 341 332 322 323 327 346 354 354 360 359 5 5
60 53 61 94 37 51 25 32 22 24 22 15 10 8 12 6 5 8 3 358 352 348 360 359 6 14 4 10 5 356 346 340 333 326 331 347 351 355 356 3 2 8 8
86 104 72 77 43 35 29 34 33 20 20 15 12 4 9 6 4 6 358 357 354 352 1 1 4 11 8 9 8 0 352 351 345 342 353 359 357 4 2 7 2 11 11
114 77 69 55 58 38 34 27 38 20 14 16 16 360 7 6 2 2 356 353 355 351 355 357 359 4 10 9 6 3 357 355 353 355 4 8 4 13 8 13 5 21 13